Miscellaneous Local Product
Issued by NWS North Platte, NE

Home | Current Version | Previous Version | Graphics & Text | Print | Product List | Glossary On
Versions: 1 2 3 4 5 6 7 8 9 10 11 12 13 14 15 16 17 18 19 20 21 22 23 24 25 26 27 28 29 30 31 32 33 34 35 36 37 38 39 40 41 42 43 44 45 46 47 48 49 50
000
AXUS43 KLBF 240910
MISLBF


WESTERN AND NORTH CENTRAL NEBRASKA HOURLY WEATHER ROUNDUP
NATIONAL WEATHER SERVICE NORTH PLATTE NE
300 AM CST WED DEC 24 2014

***STATIONS NOT REPORTING VARIABLES SUCH AS SKY/WEATHER OR
PRESSURE ARE PROVIDED BY THE NEBRASKA DEPARTMENT OF
ROADS...RAWS...AND APRS NETWORKS...AND ARE NOT UNDER
NATIONAL WEATHER SERVICE QUALITY CONTROL***

...OBSERVATIONS IN AND NEAR THE EASTERN PANHANDLE OF NEBRASKA...

CITY           SKY/WX    TMP DP  RH WIND       PRES   REMARKS
PINE RIDGE     FAIR       6   2  83 CALM      30.01F
CHADRON        FAIR       3   0  87 W6        30.02F WCI  -8
ALLIANCE       FAIR       8   5  87 CALM      30.00F
SIDNEY         FAIR      14   8  77 W10       30.02F WCI   1
WHITECLAY        N/A     30  25  80 SE3         N/A
CRESCENT LAKE    N/A     14  10  85 NW6         N/A  WCI   5
LISCO            N/A     17  12  80 W6          N/A  WCI   9
BIG SPRINGS      N/A     13  10  87 SW5         N/A  WCI   5
$$

...OBSERVATIONS IN NORTH CENTRAL NEBRASKA...

CITY           SKY/WX    TMP DP  RH WIND       PRES   REMARKS
VALENTINE      FAIR      16  13  88 NW8       30.01F WCI   5
THEDFORD       FAIR      20  17  88 W8        30.01F WCI  10
AINSWORTH      CLOUDY    24  23  98 NW12G18   29.99F FOG     WCI  13
O`NEILL        CLOUDY    26  25  96 NW13      30.00F WCI  15
ORD            CLOUDY    26  22  84 N14       29.99F WCI  14
BROKEN BOW     MOCLDY    26  22  84 N14       29.99S WCI  14
BROWNLEE         N/A     19  15  84 W10         N/A  WCI   7
SPRINGVIEW       N/A     25  22  87 W6          N/A  WCI  18
BREWSTER         N/A     27  26  94 NW8         N/A  WCI  19
ROSE             N/A     29  29 100 SW10        N/A  WCI  20
SARGENT          N/A     26  23  89 NW6         N/A  WCI  19
COMSTOCK         N/A     32  29  86 S12         N/A  WCI  23
CHAMBERS         N/A     25  23  90 N6G15       N/A  WCI  18
EWING            N/A     27  26  94 CALM        N/A
$$

...OBSERVATIONS IN SOUTHWEST NEBRASKA AND FAR NORTHEAST COLORADO...

CITY           SKY/WX    TMP DP  RH WIND       PRES   REMARKS
WRAY           FAIR      15  12  89 W9        30.05F WCI   3
HOLYOKE        FAIR      19  14  79 W9        30.04F WCI   9
IMPERIAL       FAIR      20  13  74 NW12      30.05F WCI   8
OGALLALA       FAIR      19  15  86 NW9       30.03F WCI   8
NORTH PLATTE   FAIR      17  13  84 NW8       30.03F WCI   7
MCCOOK         FAIR      24  18  77 NW13      30.04F WCI  12
LEXINGTON      FAIR      26  23  88 NW13      30.01F WCI  15
PAXTON           N/A     23  19  85 CALM        N/A
BRADY            N/A     21  17  83 SW3         N/A
GOTHENBURG       N/A     25  20  80 NW5         N/A  WCI  19
CALLAWAY         N/A     20  17  89 NW8         N/A  WCI  10
$$

...NORTH PLATTE AREA...

CITY           SKY/WX    TMP DP  RH WIND       PRES   REMARKS
AIRPORT        FAIR      17  13  84 NW8       30.03F WCI   7
DOWNTOWN         N/A     22  17  80 CALM        N/A
$$

...SOME WEATHER OBSERVATIONS FROM AROUND THE REGION...

CITY           SKY/WX    TMP DP  RH WIND       PRES   REMARKS
DENVER         FAIR      19   8  62 S13       30.02F WCI   6
LARAMIE        FAIR       8   1  73 S12       29.98F WCI  -7
CHEYENNE       FAIR      13   3  64 SW9       29.96F WCI   1
SCOTTSBLUFF    FAIR      16  11  80 NW6       30.01F WCI   7
RAPID CITY     FAIR      12   9  87 CALM      29.97F
PIERRE         CLOUDY    24  21  88 VRB6      30.00F WCI  17
WINNER         CLOUDY    27  23  85 NW7       30.02F WCI  19
SIOUX FALLS    CLOUDY    31  29  92 N16       29.93S WCI  20
OMAHA          FLURRIES  34  32  92 NW18      29.89S WCI  23
GRAND ISLAND   CLOUDY    29  24  82 NW15      29.99R WCI  18
KANSAS CITY    FLURRIES  34  33  96 NW9       29.82R WCI  27
WICHITA        FLURRIES  34  29  82 N22G29    29.94S WCI  22
HAYS           CLOUDY    30  18  59 NW16G23   30.01R WCI  19
LIBERAL        FAIR      27  19  74 NW15      30.09F WCI  15
GOODLAND       FAIR      19  14  81 NW13      30.05F WCI   6
$$



USA.gov is the U.S. government's official web portal to all federal, state and local government web resources and services.